Cosmos 1151 Rocket - Orbit

View from above orbital plane
View from above orbital plane
View from above satellite
View from above satellite

Ground track
Ground track

The orbit data is extracted from the following two-line orbital elements,

1 11672U 80005B   13141.83896498  .00000444  00000-0  47029-4 0  6989
2 11672 082.5178 042.2378 0016746 206.4389 220.3533 14.86753865802306
Epoch (UTC): 21 May 2013 20:08:06
Eccentricity: 0.0016746
inclination: 82.5178°
perigee height: 596 km
apogee height: 620 km
right ascension of ascending node: 42.2378°
argument of perigee: 206.4389°
revolutions per day: 14.86753865
mean anomaly at epoch: 220.3533°
orbit number at epoch: 80230

The dashed part of the orbit path shows where the satellite is in the earth's shadow,  

Developed and maintained by Chris Peat, Heavens-Above GmbH. Please read the updated FAQ before sending e-mail. Imprint. DLR